Retour au catalogue

METEOR 2-11 DEB

ActifPO
NORAD 42456·DEBRIS·🇷🇺 Russia

Lancé Jul 5, 1984 depuis Plesetsk Cosmodrome

Loading…

Prochains Passages (prochaines 24 heures)

TLE

FraisSource: Space-Track

Époque: Sep 14, 2026, 11:07 UTC

1 42456U 84072S   26257.46331903  .00000145  00000-0  93108-4 0  9998
2 42456  82.5424 312.0441 0041204 120.1294 240.3967 13.96221700600113

Suivez METEOR 2-11 DEB en temps réel avec AllMySat

Download on the App Store